Fayetteville, Georgia, United States (30214)
Lat: 33.45N, Lon: 84.45W
Wx Zone: GAZ054
Local Info
Past Weather Observations for Today

NOTE: This archive is for the closest National Weather Service station to Fayetteville. Information may differ from the station used for current weather conditions.

Click here for Long-term Archive

Time Weather Temperature Dewpoint Humidity Pressure Winds Precip Visibility
21:53
Clear
64°F / 18°C 63°F / 17°C 94% 29.95 in
(1014 mb)
Calm - 9SM
20:53
Clear
64°F / 18°C 64°F / 18°C 100% 29.95 in
(1014 mb)
Calm - 10SM
19:53
Partly Cloudy
66°F / 19°C 64°F / 18°C 94% 29.92 in
(1013 mb)
Calm - 10SM
17:53
Clear
75°F / 24°C 68°F / 20°C 78% 29.92 in
(1013 mb)
Calm - 10SM
16:53
Mostly Cloudy
82°F / 28°C 63°F / 17°C 51% 29.89 in
(1012 mb)
E 4.6 mph
(E 7 kph)
- 10SM
15:53
Partly Cloudy
82°F / 28°C 61°F / 16°C 48% 29.89 in
(1012 mb)
N 4.6 mph
(N 7 kph)
- 10SM
14:53
Partly Cloudy
79°F / 26°C 63°F / 17°C 58% 29.92 in
(1013 mb)
E 3.5 mph
(E 6 kph)
- 10SM
13:53
Mostly Cloudy
79°F / 26°C 63°F / 17°C 58% 29.92 in
(1013 mb)
ENE 4.6 mph
(ENE 7 kph)
- 10SM
12:53
Partly Cloudy
81°F / 27°C 63°F / 17°C 54% 29.95 in
(1014 mb)
Calm - 10SM
12:06
Partly Cloudy
75°F / 24°C 63°F / 17°C 65% 29.98 in
(1015 mb)
Variable 3.5 mph
(Variable 6 kph)
- 10SM
11:53
Mostly Cloudy
75°F / 24°C 63°F / 17°C 65% 29.98 in
(1015 mb)
ENE 4.6 mph
(ENE 7 kph)
- 10SM
10:53
Mostly Cloudy
75°F / 24°C 63°F / 17°C 65% 29.98 in
(1015 mb)
ESE 5.8 mph
(ESE 9 kph)
- 10SM
10:33
Partly Cloudy
73°F / 23°C 63°F / 17°C 69% 29.98 in
(1015 mb)
Calm - 10SM
09:53
Mostly Cloudy
73°F / 23°C 63°F / 17°C 69% 29.98 in
(1015 mb)
Variable 3.5 mph
(Variable 6 kph)
- 10SM
09:26
Mostly Cloudy
72°F / 22°C 63°F / 17°C 73% 29.98 in
(1015 mb)
ENE 3.5 mph
(ENE 6 kph)
- 10SM
09:19
Mostly Cloudy
72°F / 22°C 64°F / 18°C 78% 29.98 in
(1015 mb)
Variable 5.8 mph
(Variable 9 kph)
- 10SM
08:53
Partly Cloudy
70°F / 21°C 64°F / 18°C 83% 30.01 in
(1016 mb)
Calm - 9SM
08:48
Partly Cloudy
68°F / 20°C 64°F / 18°C 88% 30.01 in
(1016 mb)
E 3.5 mph
(E 6 kph)
- 9SM
08:41
Mostly Cloudy
70°F / 21°C 64°F / 18°C 83% 30.01 in
(1016 mb)
Calm - 9SM
08:22
Mostly Cloudy
70°F / 21°C 64°F / 18°C 83% 30.01 in
(1016 mb)
NE 5.8 mph
(NE 9 kph)
- 9SM
08:00
Partly Cloudy
68°F / 20°C 64°F / 18°C 88% 30.01 in
(1016 mb)
NE 4.6 mph
(NE 7 kph)
- 7SM
07:53
Clear
68°F / 20°C 64°F / 18°C 88% 30.01 in
(1016 mb)
NE 3.5 mph
(NE 6 kph)
- 7SM
07:03
Mostly Cloudy
Fog And Mist
66°F / 19°C 64°F / 18°C 94% 29.98 in
(1015 mb)
Calm - 6SM
06:53
Overcast
Fog And Mist
66°F / 19°C 64°F / 18°C 94% 29.98 in
(1015 mb)
Calm - 6SM
06:12
Overcast
66°F / 19°C 64°F / 18°C 94% 29.98 in
(1015 mb)
Calm - 8SM
05:53
Overcast
66°F / 19°C 64°F / 18°C 94% 29.98 in
(1015 mb)
Calm - 9SM
05:46
Overcast
66°F / 19°C 64°F / 18°C 94% 29.98 in
(1015 mb)
Calm - 8SM
05:25
Overcast
66°F / 19°C 64°F / 18°C 94% 29.98 in
(1015 mb)
Calm - 7SM
05:00
Overcast
66°F / 19°C 64°F / 18°C 94% 29.98 in
(1015 mb)
Calm - 8SM
04:53
Overcast
Fog And Mist
66°F / 19°C 64°F / 18°C 94% 29.95 in
(1014 mb)
Calm - 6SM
03:53
Overcast
66°F / 19°C 64°F / 18°C 94% 29.95 in
(1014 mb)
Calm - 10SM
03:20
Overcast
66°F / 19°C 64°F / 18°C 94% 29.95 in
(1014 mb)
NE 4.6 mph
(NE 7 kph)
- 9SM
02:53
Overcast
66°F / 19°C 64°F / 18°C 94% 29.95 in
(1014 mb)
Calm - 9SM
01:53
Overcast
66°F / 19°C 64°F / 18°C 94% 29.95 in
(1014 mb)
Calm - 8SM
01:26
Overcast
Fog And Mist
66°F / 19°C 64°F / 18°C 94% 29.95 in
(1014 mb)
Variable 3.5 mph
(Variable 6 kph)
- 4SM
01:16
Overcast
Fog And Mist
66°F / 19°C 64°F / 18°C 94% 29.95 in
(1014 mb)
NE 3.5 mph
(NE 6 kph)
- 4SM
01:08
Overcast
Fog And Mist
66°F / 19°C 64°F / 18°C 94% 29.95 in
(1014 mb)
Calm - 4SM
00:53
Overcast
Fog And Mist
66°F / 19°C 64°F / 18°C 94% 29.98 in
(1015 mb)
Calm - 3SM
00:39
Overcast
Fog And Mist
66°F / 19°C 64°F / 18°C 94% 29.98 in
(1015 mb)
Variable 3.5 mph
(Variable 6 kph)
- 3SM
00:23
Overcast
Fog And Mist
66°F / 19°C 66°F / 19°C 100% 29.98 in
(1015 mb)
Calm - 2 1/2SM
Time Weather Temperature Dewpoint Humidity Pressure Winds Precip Visibility


Weather for websites

WeatherForYou.com, LLC is not responsible for any damages or problems caused by this service. Current weather conditions are obtained from the closest station including government and personal stations which may have varying degrees of accuracy. Weather forecasts are derived from the NOAA NDFD. Like all things, this site belongs to Jesus Christ... He just trusts me to maintain it. If you have any questions or comments email webmaster@weatherforyou.com

Copyright © 2014, WeatherForYou.com LLC. All rights reserved.